Lid_Strength_Index
6 6 6 5 5 2 2 2 2 2 2 3 3 3 3 2 2 2 1 1 1 1 2 1 2 3 3 3 4 4 4 4 5 5 5 4 4 3 2 2 3 3 4
6 6 5 6 5 3 2 2 2 2 2 2 2 1 2 2 2 2 1 1 1 1 1 2 2 2 3 3 4 4 5 4 4 5 6 6 5 4 2 2 3 3 3
6 6 6 6 6 6 4 2 2 2 2 2 2 2 2 2 2 2 1 1 1 1 1 1 1 2 2 3 3 4 4 4 5 4 5 7 7 7 5 3 3 3 4
7 7 7 7 7 7 5 3 2 2 2 2 2 3 2 3 2 1 1 1 1 1 1 1 2 1 1 2 3 3 4 4 5 5 4 3 6 8 8 6 6 4 5
8 8 7 7 8 8 8 7 7 7 6 3 2 2 3 2 2 2 2 2 1 1 1 1 2 2 1 2 2 3 4 4 4 4 5 5 4 4 6 7 6 8 6
9 9 8 8 8 8 7 7 7 7 7 7 6 4 2 2 2 2 2 2 1 1 1 1 2 2 2 2 2 3 3 3 3 4 4 4 5 5 5 6 6 6 5
10 10 9 9 9 9 8 7 7 8 7 7 7 7 7 6 5 3 2 2 2 1 1 1 1 2 1 2 2 2 2 3 3 3 3 3 4 3 3 5 5 6 5
10 10 10 10 10 10 9 9 9 9 8 8 8 7 7 6 6 6 5 3 2 1 0 1 1 1 1 1 1 2 2 2 2 3 2 3 3 3 3 4 5 6 5
11 11 11 10 10 10 10 11 10 9 9 9 9 9 8 7 7 6 4 4 3 2 0 0 1 1 1 1 1 2 2 1 2 2 2 2 2 2 2 2 3 4 6
11 11 12 12 11 11 11 11 11 11 11 11 10 9 8 8 7 6 6 6 4 3 2 1 1 1 1 1 1 1 1 1 2 2 2 2 2 2 2 2 2 3 4
12 12 12 12 12 12 12 12 12 12 12 12 11 10 9 8 8 8 8 7 6 6 5 3 2 1 1 1 1 1 1 2 2 1 2 2 2 2 2 2 2 3 3
13 13 13 14 14 13 13 13 12 13 13 13 11 11 11 9 10 11 10 9 8 7 7 5 2 1 1 1 1 2 1 2 2 2 2 2 2 2 2 2 3 3 2
13 14 14 14 14 15 15 14 14 15 14 14 12 12 12 12 11 12 11 10 10 9 8 6 5 3 3 1 1 1 1 2 2 2 2 2 2 3 2 2 3 3 3
14 15 15 15 15 16 16 15 16 16 16 15 14 13 13 13 12 13 12 11 10 10 9 8 7 6 4 3 2 2 1 1 1 1 1 2 2 2 2 2 3 3 3
15 15 15 16 16 17 17 16 17 17 16 16 15 15 15 15 15 15 14 13 12 11 10 9 9 8 7 6 5 5 5 5 4 2 2 2 4 8 5 3 2 3 4
16 16 16 17 18 18 18 18 18 18 17 17 17 16 17 17 17 16 16 15 14 12 11 10 10 9 8 8 8 7 7 7 6 5 4 5 9 8 9 9 9 7 4
17 17 18 18 19 19 19 20 19 18 18 18 17 18 18 19 18 18 17 17 15 13 12 11 10 10 9 8 8 8 8 8 7 7 6 7 8 10 8 9 9 9 8
19 19 19 20 20 19 20 20 19 19 19 18 19 19 19 19 18 18 18 18 16 15 13 11 11 10 9 8 8 9 8 8 8 8 8 8 8 9 9 9 11 11 12
19 19 19 20 20 20 20 20 19 19 19 20 20 20 19 19 19 19 19 18 17 16 14 12 11 11 11 9 8 9 9 10 10 10 10 10 10 9 9 11 12 13 13
19 20 20 20 21 21 20 20 20 20 21 21 20 20 20 20 20 19 19 18 17 16 14 12 11 11 11 9 9 9 10 11 11 10 11 11 11 10 9 11 12 12 13
20 20 21 22 22 21 20 21 21 21 21 21 21 21 21 21 20 19 18 18 17 16 14 12 11 10 10 9 9 8 10 10 11 11 11 11 10 9 9 10 12 12 13
21 21 22 22 22 21 21 22 22 22 22 22 22 22 21 20 18 19 19 17 16 15 13 12 11 10 9 10 9 8 8 8 10 11 11 11 10 9 9 10 10 11 12
22 22 23 23 22 22 22 23 23 22 22 23 23 22 20 19 18 18 17 16 16 14 13 12 12 11 10 9 9 9 8 9 10 10 11 10 10 9 9 9 10 12 13
23 23 23 24 24 23 23 23 23 22 23 24 22 20 20 20 18 17 16 14 12 14 14 15 14 12 10 9 9 10 10 10 10 10 11 11 11 11 12 12 12 13 13
23 23 24 24 25 24 24 24 23 23 24 23 21 20 20 20 19 17 16 15 14 13 14 15 14 14 12 10 9 9 10 10 10 11 11 13 13 14 15 15 14 14 14
24 25 25 25 26 26 26 25 24 24 24 23 22 21 20 20 19 19 18 15 13 13 13 12 13 13 12 10 10 11 11 10 9 13 14 15 16 16 16 17 17 16 16